Regional Weather Roundup
Issued by NWS Grand Forks, ND

Home | Current Version | Previous Version | Text Only | Print | Product List | Glossary On
Versions: 1 2 3 4 5 6 7 8 9 10 11 12 13 14 15 16 17 18 19 20 21 22 23 24 25 26 27 28 29 30 31 32 33 34 35 36 37 38 39 40 41 42 43 44 45 46 47 48 49 50
000
ASUS43 KFGF 181631
RWRFGF
PRAIRIE TO PINES  WEATHER ROUNDUP
NATIONAL WEATHER SERVICE EASTERN NORTH DAKOTA/GRAND FORKS ND
1000 AM CST THU JAN 18 2018

 **SATELLITE DATA USED TO AUGMENT SKY COVER AT AUTOMATED STATIONS**
 *****  WEATHER ACROSS EASTERN NORTH DAKOTA  *****

CITY           SKY/WX    TMP DP  RH WIND       PRES   REMARKS
GRAND FORKS    PTSUNNY   24  18  77 W7        29.78S WCI  16
GRAND FRKS AFB FAIR      24  16  70 NW3       29.77S
GRAND FRKS NWS   N/A     25 N/A N/A NW5         N/A  WCI  19
DEVILS LAKE    FAIR      19  14  81 SW6       29.76S WCI  11
FARGO          FAIR      21  16  81 SW7       29.80S WCI  12
WAHPETON ARPT  FAIR      28  21  74 W6        29.82F WCI  22
$$

 ***** WEATHER ACROSS CENTRAL AND WESTERN NORTH DAKOTA  *****

CITY           SKY/WX    TMP DP  RH WIND       PRES   REMARKS
BISMARCK       FAIR      18  14  84 CALM      29.81S
MINOT          FAIR      27  19  72 SW3       29.72S
JAMESTOWN      FAIR      28  20  71 W6        29.78S WCI  22
MINOT AFB      FAIR      28  20  72 W9        29.70S WCI  19
GARRISON         N/A     17  13  84 CALM      29.75F
WILLISTON      FAIR      22  17  81 CALM      29.74S
DICKINSON      FAIR      34  22  61 W10       29.77S
HETTINGER      FAIR      32  20  61 W3        29.83S
$$

 *****  OTHER AIRPORT OBSERVATIONS IN OUR AREA  *****

CITY           SKY/WX    TMP DP  RH WIND       PRES   REMARKS
WALHALLA       FAIR      25  23  93 SE7       29.75S WCI  17
GRAFTON AIRPOR CLOUDY    27  19  74 CALM      29.79S
VALLEY CITY AR FAIR      27  21  80 NW14      29.79S WCI  15
CANDO          FAIR      16  16 100 W6        29.76S WCI   7
CAVALIER APRT    N/A     25  19  80 S5        29.76F WCI  19
GWINNER          N/A     27  21  80 SW13      29.81S WCI  16
SHEYENNE NWR     N/A     26  20  77 SW7       29.95S WCI  18
ROLLA          FAIR      18  14  86 S9        29.70F WCI   6
 ***** THE ABOVE OBSERVATIONS ARE NON NWS ARE NOT QUALITY
       CONTROLLED AND MAY MIS-REPORT RAIN FOR SNOW...
$$

  *****  WEATHER ACROSS NORTHERN MINNESOTA  *****

CITY           SKY/WX    TMP DP  RH WIND       PRES   REMARKS
FLAG ISLAND    FAIR      23  16  74 NW12      29.70F WCI  12
WARROAD        FAIR      23  16  74 W8        29.74S WCI  14
ROSEAU         CLOUDY    25  18  74 W3        29.74R
HALLOCK        CLOUDY    25  18  74 CALM      29.77R
THF RVR FALLS  CLOUDY    28  22  78 NW3       29.77S
BAUDETTE       FAIR      25  19  78 W7        29.70F WCI  17
WASKISH        CLOUDY    28  23  80 W9        29.73F WCI  20
CROOKSTON      FAIR      19  16  86 CALM      29.79R
STEPHEN NDAWN    N/A     25  19  80 NW2         N/A
GREENBUSH NDAW   N/A     25  19  80 NW3         N/A
$$
  *****  WEATHER ACROSS CENTRAL AND WEST MINNESOTA  *****

CITY           SKY/WX    TMP DP  RH WIND       PRES   REMARKS
FOSSTON        CLOUDY    23  18  80 SW5       29.78R WCI  17
BEMIDJI        CLOUDY    29  24  79 W6        29.74S WCI  23
PARK RAPIDS    FAIR      26  19  74 W6        29.77R WCI  19
ELBOW LAKE     FAIR      29  22  76 SW3       29.83S HAZE
WADENA         FAIR      28  19  69 W7        29.79S WCI  21
DETROIT LAKES  FAIR      30  21  69 W7        29.79S WCI  23
MOORHEAD       FAIR      23  18  80 SW5       29.81F WCI  17
FERGUS FALLS   FAIR      25  19  80 CALM      29.82F
MORRIS MN      FAIR      37  25  60 W9        29.83S
STAPLES        FAIR      28  19  69 W7        29.80R WCI  21
$$
  *****  WEATHER ELSEWHERE ACROSS MINNESOTA  *****

CITY           SKY/WX    TMP DP  RH WIND       PRES   REMARKS
DULUTH         CLOUDY    31  23  72 W12       29.71R WCI  22
INTRNTL FALLS  CLOUDY    28  24  85 W12       29.69R WCI  18
ELY            CLOUDY    30  28  93 W8        29.68R WCI  23
CLOQUET        CLOUDY    34  21  60 W12       29.74R
WHEATON        FAIR      36  21  55 W9        29.85F
BRAINERD       FAIR      31  21  66 W7        29.79R WCI  24
HIBBING        CLOUDY    31  25  78 NW15G23   29.71R WCI  20
ALEXANDRIA     FAIR      34  22  61 W12       29.82R
SAINT CLOUD    FAIR      28  21  75 SW8       29.83R WCI  20
MINNEAPOLIS    FAIR      30  21  69 SW8       29.89R WCI  22
$$

  *****  WEATHER ACROSS SOUTH DAKOTA  *****

CITY           SKY/WX    TMP DP  RH WIND       PRES   REMARKS
SIOUX FALLS    FAIR      27  21  78 S9        29.93F WCI  18
BROOKINGS      FAIR      28  21  75 S7        29.90R WCI  21
WATERTOWN      FAIR      27  22  81 S7        29.84F WCI  19
HURON          FAIR      24  19  81 S5        29.90R WCI  18
SISSETON         N/A     39  23  52 W16       29.81R
ABERDEEN       FAIR      23  19  85 S7        29.86S WCI  15
MITCHELL       FAIR      24  19  81 S6        29.93S WCI  17
PIERRE         FAIR      28  22  78 SW9       29.87F WCI  19
MOBRIDGE       FAIR      24  20  84 SE3       29.81S
RAPID CITY     FAIR      38  20  48 CALM      29.88F
$$

  *****  SOME WEATHER IN NEARBY STATES *****

CITY           SKY/WX    TMP DP  RH WIND       PRES   REMARKS
GLASGOW MT     FAIR      19  15  84 CALM      29.71F
GREAT FALLS MT FAIR      43  28  55 SW13      29.70F
CHEYENNE WY    FAIR      40  17  39 SW6       30.09S
SCOTTSBLUFF NE FAIR      32  23  69 NW8       30.01F WCI  25
OMAHA NE       FAIR      19  10  68 SE9       30.10R WCI   8
DES MOINES IA  FAIR      25  12  58 SW13      30.08R WCI  14
DAVENPORT IA   FAIR      24  12  60 SW16      30.13F WCI  11
CHICAGO IL     FAIR      22  12  65 SW16G26   30.08F WCI   8
EAU CLAIRE WI  FAIR      26  18  71 SW9       29.87R WCI  17
LA CROSSE WI   FAIR      23  15  71 S8        29.98F WCI  14
$$

  *****  SOME NATIONAL WEATHER *****

CITY           SKY/WX    TMP DP  RH WIND       PRES   REMARKS
LA GUARDIA NY  FAIR      28   8  43 NW10      30.04F WCI  19
RALEIGH NC     FAIR      25  14  63 W5        30.30R WCI  19
ATLANTA GA     FAIR      27  12  53 NW12      30.43S WCI  17
NEW ORLEANS LA FAIR      31  20  63 NE12      30.60S WCI  22
OKLAHOMA CITY  FAIR      30   8  39 S14       30.38S WCI  19
ALBUQUERQUE NM FAIR      25  13  60 NW5       30.32R WCI  19
SALT LAKE CITY PTSUNNY   40  28  62 S12       30.20F
LOS ANGELES CA FAIR      58  46  64 SE5       30.09S
BOISE ID       FAIR      49  34  56 SE20G25   29.93F
SEATTLE WA     FAIR      42  39  89 SE14      29.83R
$$

*** WEATHER ACROSS MANITOBA...SASKATCHEWAN AND ONTARIO ***
                ***ONTARIO***

CITY           SKY/WX    TMP DP  RH WIND       PRES   REMARKS
GERALDTON      PTSUNNY    9   5  85 E3        29.72R
THUNDER BAY    FLURRIES  18  16  93 VRB2      29.69S
SIOUX LOOKOUT  FRZ DRZL  18  16  93 CALM      29.63R VSB 1/2
TORONTO        FLURRIES  19  10  68 SW14      30.04R WCI   6
BIG TROUT LK   FLURRIES   5   1  85 E3        29.79F
PICKLE LAKE    PTSUNNY   10   5  79 SE9       29.67S WCI  -2
DRYDEN         CLOUDY    25  25 100 NW6       29.64R FOG     WCI  18
KENORA         CLOUDY    23  21  93 W8        29.69R WCI  14
$$
                *** MANITOBA***

CITY           SKY/WX    TMP DP  RH WIND       PRES   REMARKS
BRANDON        PTSUNNY   18  14  86 SW7       29.69F WCI   8
DAUPHIN        CLOUDY    19  14  79 E8        29.67F WCI   9
ISLAND LAKE    FLURRIES  10   5  79 SE3       29.73R
PILOT MOUND      N/A     19  14  79 SW2         N/A
THE PAS        CLOUDY     3   0  85 SE8       29.66R WCI -10
THOMPSON       LGT SNOW   5   3  92 E3        29.72S
WINNIPEG       PTSUNNY   18  10  73 W7        29.76S WCI   8
LYNN LAKE      LGT SNOW   7   5  92 SE8       29.61S WCI  -6
CHURCHILL      FLURRIES  -2  -4  92 W6        29.84F WCI -14
GILLAM         LGT SNOW  -2  -6  84 SE5       29.79F WCI -12
$$
                ***SASKATCHEWAN***

CITY           SKY/WX    TMP DP  RH WIND       PRES   REMARKS
ESTEVAN        CLOUDY    23  18  80 S10       29.67F WCI  12
KINDERSLEY     CLOUDY    39  32  75 SW14G23   29.45S
LLOYDMINSTER   CLOUDY    28  25  86 S6        29.35F WCI  22
PRINCE ALBERT  MOCLDY     7   3  85 E9        29.51F WCI  -7
REGINA         CLOUDY    19  16  86 SE10      29.61S WCI   8
YORKTON        CLEAR     18  14  86 S6        29.61S WCI   9
N. BATTLEFORD  MOCLDY    21  18  86 E8        29.44R WCI  12
LA RONGE       FOG       16  14  93 W6        29.50F VSB 1   WCI   7
SASKATOON      MOCLDY    25  19  80 S9        29.48F WCI  15
SWIFT CURRENT  PTCLDY    39  30  70 SW26      29.52F
$$
NOTE: THESE ARE AUTOMATED STATIONS WITH LIMITED QUALITY CONTROL
      "FAIR" INDICATES FEW OR NO CLOUDS BELOW 12,000 FEET WITH NO
      SIGNIFICANT WEATHER AND/OR OBSTRUCTIONS TO VISIBILITY.
      SKY/WX - SKY CONDITION AND SIGNIFICANT WEATHER.
      TMP - AIR TEMPERATURE.    DP   - DEWPOINT TEMPERATURE.
      RH  - RELATIVE HUMIDITY.  PRES - PRESSURE.
      HX  - HEAT INDEX.         WCI  - WIND CHILL INDEX.
$




USA.gov is the U.S. government's official web portal to all federal, state and local government web resources and services.